Weather History For Prescott AZ
This page updates 5 minutes after midnight. GMT -7
Station: KPRC0 Rows: 26
| Year | Date | Temp (°F) | Tmin (°F) | Tmax (°F) | RH% | Prcp | Snow | Wind | Gust | Pres | Sun | Cloud |
|---|---|---|---|---|---|---|---|---|---|---|---|---|
| 2000 | 2000-05-02 | 67.3 | 48.0 | 82.9 | 17 | — | — | 14.1 | — | 29.82 | — | 0 |
| 2001 | 2001-05-02 | 62.4 | 48.9 | 73.9 | 22 | — | — | 23.2 | — | 29.62 | — | 2 |
| 2002 | 2002-05-02 | 51.1 | 37.4 | 62.6 | 30 | — | — | 12.3 | — | 29.82 | — | 2 |
| 2003 | 2003-05-02 | 57.0 | 39.2 | 69.8 | 25 | — | — | 14.6 | — | 29.85 | — | 0 |
| 2004 | 2004-05-02 | 63.3 | 42.8 | 80.6 | 25 | — | — | 7.8 | — | 30.06 | — | 0 |
| 2005 | 2005-05-02 | 57.6 | 46.9 | 69.1 | 40 | 0.0 | — | 10.3 | — | 29.87 | — | 2 |
| 2006 | 2006-05-02 | 66.6 | 48.9 | 78.1 | 20 | 0.0 | — | 14.0 | — | 29.82 | — | 1 |
| 2007 | 2007-05-02 | 62.8 | 48.9 | 75.0 | 46 | 0.3 | — | 13.2 | — | 29.78 | — | 3 |
| 2008 | 2008-05-02 | 50.9 | 34.0 | 66.9 | 16 | 0.0 | — | 11.1 | — | 29.93 | — | 0 |
| 2009 | 2009-05-02 | 63.5 | 57.0 | 72.0 | 36 | 0.0 | — | 19.2 | — | 29.84 | — | 3 |
| 2010 | 2010-05-02 | 50.7 | 42.1 | 55.9 | 27 | — | — | 27.9 | — | 29.74 | — | 4 |
| 2011 | 2011-05-02 | 50.7 | 30.0 | 66.9 | 23 | 0.0 | — | 6.3 | — | 30.19 | — | 0 |
| 2012 | 2012-05-02 | 62.2 | — | — | 32 | — | — | 13.0 | — | 29.78 | — | 0 |
| 2013 | 2013-05-02 | 56.8 | 39.0 | 72.0 | 11 | 0.0 | — | 14.4 | — | 30.14 | — | 0 |
| 2014 | 2014-05-02 | 62.4 | 39.9 | 80.1 | 18 | 0.0 | — | 9.8 | — | 29.99 | — | 0 |
| 2015 | 2015-05-02 | 66.0 | 50.0 | 80.1 | 26 | — | — | 9.7 | — | 29.81 | — | — |
| 2016 | 2016-05-02 | 51.4 | 37.0 | 66.0 | 65 | — | — | 8.9 | — | 30.01 | — | — |
| 2017 | 2017-05-02 | 64.0 | 45.0 | 80.1 | 27 | 0.0 | — | 13.1 | — | 29.85 | — | 0 |
| 2018 | 2018-05-02 | 43.7 | 39.0 | 50.0 | 80 | — | — | 11.0 | — | 29.86 | — | — |
| 2019 | 2019-05-02 | 57.0 | 39.0 | 71.1 | 34 | 0.0 | — | 9.8 | — | 29.89 | — | 0 |
| 2020 | 2020-05-02 | 66.2 | 52.0 | 77.0 | 28 | 0.0 | — | 16.1 | — | 29.88 | — | 0 |
| 2021 | 2021-05-02 | 63.0 | 46.0 | 73.0 | 19 | 0.0 | — | 18.0 | — | 29.57 | — | 0 |
| 2022 | 2022-05-02 | 60.8 | 42.1 | 75.0 | 26 | 0.0 | — | 12.8 | — | 29.79 | — | 0 |
| 2023 | 2023-05-02 | 59.2 | 43.0 | 71.1 | 25 | 0.0 | — | 19.2 | — | 29.74 | — | 0 |
| 2024 | 2024-05-02 | 61.7 | 45.0 | 75.0 | 32 | 0.0 | — | 11.5 | — | 29.78 | — | 0 |
| 2025 | 2025-05-02 | 59.0 | 46.0 | 75.0 | 36 | 1.1 | — | 10.9 | — | 29.85 | — | 2 |